1499288400.5,47970,17.44,74278.5,5.19,1.43,1.79,0,*74
1499288401.7,47971,17.44,74276.8,5.19,1.43,1.79,0,*75
1499288402.88,47972,17.44,74280.5,5.19,1.41,1.79,0,*74
1499288404.12,47973,17.44,74282.3,5.21,1.47,1.71,0,*70
1499288405.32,47974,17.44,74276.8,5.19,1.41,1.67,0,*7D
1499288406.55,47975,17.44,74276.8,5.19,1.37,1.63,0,*79
1499288407.8,47976,17.44,74280.0,5.21,1.33,1.59,0,*7C
1499288409.05,47977,17.44,74276.8,5.21,1.33,1.47,0,*72
1499288410.29,47978,17.44,74282.5,5.19,1.25,1.37,0,*76
1499288411.52,47979,17.44,74282.3,5.19,1.17,1.25,0,*75
1499288412.69,47980,17.44,74286.5,5.19,1.05,1.01,0,*76
1499288413.9,47981,17.44,74288.3,5.19,1.05,0.91,0,*4F
1499288415.09,47982,17.44,74282.0,5.19,1.01,0.67,0,*41
1499288416.31,47983,17.44,74286.8,5.21,0.97,0.59,0,*78
1499288417.53,47984,17.44,74294.0,5.19,0.95,0.29,0,*71
1499288418.75,47985,17.44,74292.5,5.19,0.95,0.21,0,*78
1499288419.94,47986,17.44,74286.8,5.19,0.95,-0.03,0,*66
1499288421.17,47987,17.44,74284.0,5.21,0.83,-0.11,0,*58
1499288422.38,47988,17.44,74282.5,5.21,0.59,-0.29,0,*5B
1499288423.57,47989,17.44,74284.0,5.19,0.33,-0.45,0,*57
1499288424.74,47990,17.44,74278.8,5.19,0.09,-0.69,0,*68
1499288425.95,47991,17.44,74276.0,5.21,-0.15,-0.77,0,*7D
1499288427.17,47992,17.44,74266.3,5.21,-0.41,-0.93,0,*75
1499288428.38,47993,17.44,74272.5,5.21,-0.61,-0.93,0,*76
1499288429.59,47994,17.44,74270.5,5.19,-0.89,-0.81,0,*7F
1499288430.8,47995,17.44,74266.0,5.19,-1.09,-0.77,0,*4E
1499288431.98,47996,17.44,74266.5,5.19,-1.21,-0.65,0,*44
1499288433.22,47997,17.44,74264.0,5.21,-1.35,-0.49,0,*45
1499288434.45,47998,17.44,74266.0,5.21,-1.39,-0.37,0,*4F
1499288435.68,47999,17.44,74274.0,5.21,-1.51,-0.27,0,*41
1499288436.86,48000,17.44,74264.3,5.19,-1.63,-0.19,0,*40
1499288438.04,48001,17.44,74262.5,5.19,-1.67,-0.03,0,*7E
1499288439.27,48002,17.44,74272.5,5.21,-1.75,0.21,0,*68
1499288440.5,48003,17.44,74274.3,5.21,-1.71,0.21,0,*6D
1499288441.72,48004,17.44,74272.0,5.21,-1.71,0.25,0,*6E
1499288442.95,48005,17.44,74276.5,5.21,-1.71,0.33,0,*68
1499288444.17,48006,17.44,74274.8,5.21,-1.71,0.33,0,*6B
1499288445.39,48007,17.44,74272.0,5.21,-1.63,0.25,0,*6E
1499288446.61,48008,17.44,74266.5,5.21,-1.63,0.25,0,*61
1499288447.82,48009,17.44,74270.3,5.21,-1.59,0.13,0,*6C
1499288449.0,48010,17.44,74274.5,5.19,-1.67,-0.03,0,*7E
1499288450.19,48011,17.44,74272.0,5.21,-1.59,0.01,0,*56
1499288451.38,48012,17.44,74274.0,5.19,-1.63,-0.15,0,*4F
1499288452.59,48013,17.44,74280.3,5.21,-1.63,-0.15,0,*45
1499288453.79,48014,17.44,74282.3,5.21,-1.59,-0.19,0,*47
1499288454.99,48015,17.44,74280.3,5.19,-1.59,-0.27,0,*40
1499288456.18,48016,17.44,74282.0,5.19,-1.63,-0.41,0,*4A
1499288457.39,48017,17.44,74282.8,5.21,-1.51,-0.37,0,*40
1499288458.59,48018,17.44,74280.0,5.21,-1.51,-0.49,0,*46
1499288459.82,48019,17.44,74276.8,5.21,-1.47,-0.53,0,*4B
1499288461.02,48020,17.44,74274.3,5.21,-1.51,-0.53,0,*46
1499288462.22,48021,17.44,74282.3,5.21,-1.51,-0.49,0,*4C
1499288463.4,48022,17.44,74280.0,5.19,-1.63,-0.57,0,*4A
1499288464.59,48023,17.44,74280.0,5.19,-1.63,-0.53,0,*4F
1499288465.79,48024,17.44,74280.8,5.21,-1.59,-0.49,0,*41
1499288467.0,48025,17.44,74282.8,5.21,-1.63,-0.41,0,*41
1499288468.19,48026,17.44,74280.3,5.19,-1.63,-0.41,0,*49
1499288469.41,48027,17.44,74280.8,5.21,-1.59,-0.27,0,*4A
1499288470.61,48028,17.44,74278.5,5.21,-1.51,-0.03,0,*7B
1499288471.8,48029,17.44,74284.5,5.21,-1.51,-0.03,0,*7A
1499288473.03,48030,17.44,74280.8,5.21,-1.39,0.09,0,*5B
1499288474.25,48031,17.44,74282.3,5.21,-1.29,0.25,0,*65
1499288475.45,48032,17.44,74278.3,5.21,-1.25,0.43,0,*6A
1499288476.66,48033,17.44,74280.0,5.23,-1.17,0.37,0,*6B
1499288477.91,48034,17.44,74278.5,5.21,-1.01,0.55,0,*6D
1499288479.16,48035,17.44,74278.5,5.21,-0.89,0.59,0,*51
1499288480.38,48036,17.44,74270.0,5.21,-0.77,0.59,0,*53
1499288481.6,48037,17.44,74268.8,5.21,-0.77,0.47,0,*5D
1499288482.82,48038,17.44,74270.3,5.21,-0.65,0.47,0,*51
1499288484.04,48039,17.44,74268.8,5.21,-0.53,0.33,0,*56
1499288485.25,48040,17.44,74266.3,5.21,-0.49,0.25,0,*54
1499288486.48,48041,17.44,74272.3,5.21,-0.41,0.21,0,*59
1499288487.67,48042,17.44,74268.5,5.21,-0.29,0.01,0,*66
1499288488.89,48043,17.44,74272.5,5.21,-0.27,-0.03,0,*46
1499288490.09,48044,17.44,74274.8,5.21,-0.15,-0.11,0,*73
1499288491.29,48045,17.44,74274.0,5.21,-0.15,-0.19,0,*7A
1499288492.48,48046,17.44,74278.0,5.21,-0.03,-0.29,0,*4D
1499288493.67,48047,17.44,74280.3,5.19,-0.19,-0.37,0,*73
1499288494.88,48048,17.44,74282.0,5.21,-0.15,-0.41,0,*7A
1499288496.08,48049,17.44,74284.8,5.21,-0.15,-0.41,0,*7B
1499288497.26,48050,17.44,74288.5,5.19,-0.15,-0.45,0,*7C
1499288498.46,48051,17.44,74288.5,5.21,-0.11,-0.53,0,*75
1499288499.66,48052,17.44,74286.0,5.21,-0.15,-0.65,0,*77
1499288500.85,48053,17.44,74284.3,5.21,-0.15,-0.65,0,*76
1499288502.06,48054,17.44,74290.0,5.21,-0.19,-0.77,0,*7E
1499288503.28,48055,17.44,74286.5,5.21,-0.29,-1.01,0,*4C
1499288504.51,48056,17.44,74288.5,5.21,-0.37,-1.05,0,*44
1499288505.71,48057,17.44,74288.5,5.21,-0.53,-1.29,0,*49
1499288506.92,48058,17.44,74284.5,5.21,-0.65,-1.29,0,*43
1499288508.17,48059,17.44,74280.8,5.21,-0.85,-1.35,0,*41
1499288509.44,48060,17.44,74280.5,5.21,-1.05,-1.39,0,*7E
1499288510.68,48061,17.44,74286.3,5.21,-1.17,-1.35,0,*70
1499288511.92,48062,17.44,74280.0,5.21,-1.39,-1.29,0,*72
1499288513.13,48063,17.44,74276.0,5.21,-1.63,-1.17,0,*71
1499288514.36,48064,17.44,74270.5,5.21,-1.75,-1.05,0,*72
1499288515.61,48065,17.44,74272.5,5.21,-1.87,-0.85,0,*47
1499288516.84,48066,17.44,74268.3,5.21,-1.91,-0.73,0,*4A
1499288518.05,48067,17.44,74266.5,5.19,-2.07,-0.65,0,*4B
1499288519.29,48068,17.44,74266.5,5.21,-2.11,-0.49,0,*46
1499288520.49,48069,17.44,74268.0,5.21,-2.15,-0.37,0,*4A
1499288521.7,48070,17.44,74270.5,5.21,-2.23,-0.15,0,*47
1499288522.89,48071,17.44,74270.8,5.21,-2.15,0.01,0,*5B
1499288524.11,48072,17.44,74266.0,5.21,-2.15,0.33,0,*69
1499288525.28,48073,17.44,74266.5,5.23,-2.15,0.43,0,*6D
1499288526.51,48074,17.44,74268.0,5.21,-2.15,0.75,0,*6D
1499288527.71,48075,17.44,74272.0,5.23,-2.03,0.97,0,*65
1499288528.94,48076,17.44,74270.0,5.23,-2.03,1.21,0,*5A
1499288530.16,48077,17.44,74266.8,5.23,-1.91,1.43,0,*57
1499288531.39,48078,17.44,74260.0,5.23,-1.91,1.67,0,*5E
1499288532.56,48079,17.44,74262.8,5.23,-1.75,1.79,0,*5A
1499288533.74,48080,17.44,74260.5,5.23,-1.59,1.79,0,*52
1499288534.94,48081,17.44,74266.3,5.23,-1.35,1.83,0,*5C
1499288536.12,48082,17.44,74262.0,5.23,-1.25,1.83,0,*5E
1499288537.33,48083,17.44,74258.5,5.23,-1.13,1.83,0,*5A
1499288538.55,48084,17.44,74260.3,5.23,-0.89,1.71,0,*62
1499288539.75,48085,17.44,74256.3,5.23,-0.77,1.55,0,*64
1499288540.95,48086,17.44,74258.8,5.23,-0.73,1.47,0,*60
1499288542.14,48087,17.44,74258.5,5.23,-0.65,1.43,0,*62
1499288543.34,48088,17.44,74260.5,5.23,-0.53,1.29,0,*64
1499288544.54,48089,17.44,74258.8,5.25,-0.37,1.21,0,*69
1499288545.72,48090,17.44,74260.0,5.23,-0.41,1.05,0,*60
1499288546.92,48091,17.44,74262.3,5.25,-0.37,1.09,0,*6A
1499288548.09,48092,17.44,74262.3,5.23,-0.29,0.97,0,*56
1499288549.25,48093,17.44,74260.8,5.23,-0.37,0.97,0,*58
1499288550.45,48094,17.44,74262.5,5.23,-0.41,0.95,0,*5C
1499288551.62,48095,17.44,74264.3,5.23,-0.41,0.97,0,*5F
1499288552.79,48096,17.44,74266.3,5.23,-0.41,0.97,0,*5C
1499288553.99,48097,17.44,74264.5,5.25,-0.37,1.13,0,*67
1499288555.19,48098,17.44,74262.8,5.25,-0.37,1.21,0,*69
1499288556.4,48099,17.44,74264.5,5.23,-0.41,1.21,0,*6F
1499288557.62,48100,17.44,74264.8,5.23,-0.27,1.43,0,*6A
1499288558.81,48101,17.44,74262.8,5.23,-0.19,1.47,0,*62
1499288560.01,48102,17.44,74268.0,5.23,-0.11,1.67,0,*6B
1499288561.17,48103,17.44,74270.3,5.23,0.01,1.83,0,*7C
1499288562.35,48104,17.44,74270.3,5.23,0.09,1.89,0,*79
1499288563.56,48105,17.44,74268.0,5.23,0.13,1.93,0,*48
1499288564.77,48106,17.44,74268.5,5.23,0.33,2.13,0,*42
1499288565.99,48107,17.44,74264.3,5.25,0.37,2.17,0,*45
1499288567.21,48108,17.44,74260.3,5.25,0.41,2.21,0,*4E
1499288568.4,48109,17.44,74266.8,5.25,0.51,2.31,0,*4F
1499288569.59,48110,17.44,74264.8,5.25,0.63,2.31,0,*46
1499288570.81,48111,17.44,74266.8,5.23,0.71,2.17,0,*46
1499288572.02,48112,17.44,74262.0,5.23,0.75,2.17,0,*41
1499288573.25,48113,17.44,74262.5,5.23,0.87,2.17,0,*4D
1499288574.45,48114,17.44,74262.3,5.25,0.97,2.09,0,*42
1499288575.69,48115,17.44,74268.0,5.25,1.21,1.97,0,*7B
1499288576.89,48116,17.44,74270.5,5.23,1.29,1.83,0,*73
1499288578.09,48117,17.44,74262.3,5.23,1.41,1.71,0,*71
1499288579.31,48118,17.44,74264.5,5.25,1.47,1.63,0,*7D
1499288580.53,48119,17.44,74264.8,5.25,1.51,1.47,0,*7D
1499288581.76,48120,17.44,74254.0,5.25,1.59,1.33,0,*7C
1499288582.95,48121,17.44,74252.8,5.23,1.59,1.05,0,*7E
1499288584.17,48122,17.44,74252.0,5.23,1.71,0.87,0,*4C
1499288585.39,48123,17.44,74254.5,5.23,1.71,0.67,0,*43
1499288586.59,48124,17.44,74260.5,5.25,1.75,0.41,0,*42
1499288587.78,48125,17.44,74264.5,5.25,1.75,0.17,0,*40
1499288588.99,48126,17.44,74266.5,5.23,1.71,-0.11,0,*6A
1499288590.2,48127,17.44,74262.8,5.23,1.71,-0.41,0,*6E
1499288591.37,48128,17.44,74260.0,5.23,1.75,-0.61,0,*67
1499288592.58,48129,17.44,74262.3,5.23,1.71,-1.25,0,*53
1499288593.79,48130,17.44,74266.8,5.23,1.55,-1.51,0,*5E
1499288595.02,48131,17.44,74262.0,5.25,1.43,-1.87,0,*55
1499288596.24,48132,17.44,74262.0,5.25,1.21,-2.35,0,*58
1499288597.45,48133,17.44,74264.8,5.25,0.91,-2.87,0,*6A
1499288598.66,48134,17.44,74264.8,5.23,0.67,-3.43,0,*6B
1499288599.85,48135,17.44,74264.0,5.23,0.33,-3.91,0,*64
1499288601.02,48136,17.44,74264.5,5.23,0.09,-4.45,0,*50
1499288602.25,48137,17.44,74274.5,5.25,-0.23,-4.93,0,*49
1499288603.44,48138,17.44,74276.5,5.25,-0.45,-5.55,0,*4D
1499288604.65,48139,17.44,74270.8,5.25,-0.89,-5.97,0,*42
1499288605.87,48140,17.44,74272.5,5.25,-1.13,-6.43,0,*74
1499288607.11,48141,17.44,74274.0,5.25,-1.43,-6.63,0,*72
1499288608.33,48142,17.44,74264.3,5.25,-1.71,-6.97,0,*7B
1499288609.55,48143,17.44,74268.3,5.25,-1.99,-7.15,0,*77
1499288610.75,48144,17.44,74272.5,5.23,-2.43,-7.27,0,*73
1499288612.0,48145,17.44,74270.0,5.25,-2.75,-7.65,0,*77
1499288613.18,48146,17.44,74270.3,5.23,-3.23,-7.83,0,*78
1499288614.42,48147,17.44,74270.0,5.23,-3.55,-8.07,0,*7B
1499288615.61,48148,17.44,74268.8,5.23,-4.05,-8.21,0,*72
1499288616.8,48149,17.44,74272.5,5.25,-4.37,-8.37,0,*73
1499288617.99,48150,17.44,74274.3,5.23,-4.77,-8.63,0,*78
1499288619.21,48151,17.44,74272.8,5.23,-4.93,-8.81,0,*7F
1499288620.43,48152,17.44,74272.0,5.23,-5.31,-9.05,0,*78
1499288621.66,48153,17.44,74270.0,5.23,-5.61,-9.15,0,*7D
1499288622.87,48154,17.44,74268.0,5.23,-5.89,-9.19,0,*70
1499288624.08,48155,17.44,74268.8,5.23,-6.23,-9.19,0,*72
1499288625.28,48156,17.44,74272.5,5.23,-6.47,-9.15,0,*7F
1499288626.47,48157,17.44,74274.8,5.23,-6.69,-9.01,0,*77
1499288627.68,48158,17.44,74274.8,5.23,-7.01,-8.89,0,*76
1499288628.89,48159,17.44,74272.5,5.23,-7.19,-8.51,0,*7B
1499288630.11,48160,17.44,74272.3,5.23,-7.43,-8.37,0,*7E
1499288631.32,48161,17.44,74270.5,5.23,-7.69,-8.21,0,*70
1499288632.53,48162,17.44,74274.0,5.23,-7.87,-7.95,0,*73
1499288633.79,48163,17.44,74272.5,5.21,-8.07,-7.57,0,*79
1499288635.03,48164,17.44,74274.3,5.21,-8.25,-7.31,0,*7E
1499288636.25,48165,17.44,74274.8,5.21,-8.41,-7.05,0,*7A
1499288637.44,48166,17.44,74276.3,5.19,-8.59,-6.69,0,*70
1499288638.65,48167,17.44,74272.3,5.21,-8.67,-6.51,0,*7C
1499288639.84,48168,17.44,74278.0,5.19,-8.71,-6.13,0,*79
1499288641.08,48169,17.44,74278.0,5.19,-8.81,-5.93,0,*7C
1499288642.32,48170,17.44,74278.3,5.21,-8.81,-5.51,0,*71
1499288643.58,48171,17.44,74272.0,5.21,-8.81,-5.11,0,*74
1499288644.8,48172,17.44,74272.5,5.19,-8.93,-4.93,0,*74
1499288646.0,48173,17.44,74278.3,5.21,-8.67,-4.33,0,*7F
1499288647.19,48174,17.44,74274.5,5.19,-8.59,-3.95,0,*75
1499288648.4,48175,17.44,74276.0,5.19,-8.41,-3.55,0,*71
1499288649.59,48176,17.44,74274.5,5.19,-8.25,-3.27,0,*75
1499288650.81,48177,17.44,74272.0,5.19,-8.11,-2.83,0,*7C
1499288652.04,48178,17.44,74274.5,5.21,-7.87,-2.55,0,*73
1499288653.3,48179,17.44,74270.5,5.21,-7.69,-2.03,0,*71
1499288654.52,48180,17.44,74272.5,5.19,-7.35,-1.75,0,*77
1499288655.71,48181,17.44,74272.0,5.19,-7.23,-1.29,0,*78
1499288656.94,48182,17.44,74272.0,5.19,-6.97,-0.97,0,*41
1499288658.12,48183,17.44,74274.8,5.19,-6.73,-0.45,0,*45
1499288659.32,48184,17.44,74274.5,5.19,-6.51,-0.19,0,*4B
1499288660.54,48185,17.44,74272.0,5.17,-6.13,0.17,0,*61
1499288661.77,48186,17.44,74274.0,5.19,-5.77,0.55,0,*6B
1499288662.98,48187,17.44,74272.8,5.19,-5.47,0.83,0,*62
1499288664.21,48188,17.44,74272.0,5.19,-5.11,1.13,0,*56
1499288665.4,48189,17.44,74270.3,5.19,-4.81,1.41,0,*58
1499288666.6,48190,17.44,74274.8,5.19,-4.45,1.67,0,*5C
1499288667.81,48191,17.44,74276.0,5.19,-4.09,1.85,0,*59
1499288669.02,48192,17.44,74272.8,5.19,-3.79,1.97,0,*59
1499288670.28,48193,17.44,74274.5,5.17,-3.43,2.25,0,*55
1499288671.49,48194,17.44,74276.3,5.17,-3.15,2.35,0,*50
1499288672.67,48195,17.44,74276.8,5.19,-2.79,2.35,0,*54
1499288673.87,48196,17.44,74274.0,5.19,-2.55,2.35,0,*59
1499288675.05,48197,17.44,74276.8,5.19,-2.31,2.35,0,*5A
1499288676.29,48198,17.44,74272.5,5.19,-2.03,2.39,0,*58
1499288677.53,48199,17.44,74276.5,5.19,-1.83,2.39,0,*52
1499288678.73,48200,17.44,74274.5,5.19,-1.51,2.47,0,*57
1499288679.94,48201,17.44,74276.5,5.19,-1.29,2.39,0,*50
1499288681.14,48202,17.44,74272.3,5.19,-1.09,2.27,0,*5E
1499288682.32,48203,17.44,74274.3,5.19,-0.81,2.35,0,*6D
1499288683.5,48204,17.44,74276.0,5.19,-0.65,2.35,0,*60
1499288684.68,48205,17.44,74274.5,5.19,-0.41,2.27,0,*64
1499288685.86,48206,17.44,74272.0,5.19,-0.19,2.35,0,*69
1499288687.06,48207,17.44,74276.0,5.19,-0.03,2.13,0,*57
1499288688.3,48208,17.44,74276.8,5.21,0.25,2.13,0,*4A
1499288689.49,48209,17.44,74272.5,5.19,0.43,1.97,0,*4F
1499288690.69,48210,17.44,74276.0,5.19,0.63,1.89,0,*4A
1499288691.91,48211,17.44,74274.5,5.21,0.87,1.83,0,*40
1499288693.13,48212,17.44,74274.5,5.19,1.13,1.75,0,*7D
1499288694.35,48213,17.44,74272.5,5.19,1.25,1.67,0,*7A
1499288695.59,48214,17.44,74270.3,5.19,1.37,1.55,0,*7F
1499288696.83,48215,17.44,74272.3,5.21,1.55,1.43,0,*76
1499288698.08,48216,17.44,74270.3,5.21,1.67,1.21,0,*70
1499288699.3,48217,17.44,74268.5,5.21,1.71,1.05,0,*70
1499288700.52,48218,17.44,74270.0,5.21,1.79,0.95,0,*4F
1499288701.73,48219,17.44,74268.3,5.21,1.83,0.75,0,*45
1499288702.96,48220,17.44,74270.0,5.25,1.93,0.59,0,*44
1499288704.18,48221,17.44,74266.5,5.23,1.93,0.37,0,*4B
1499288705.37,48222,17.44,74268.5,5.23,1.93,0.01,0,*7D
1499288706.58,48223,17.44,74266.5,5.23,1.93,-0.19,0,*68
1499288707.79,48224,17.44,74264.8,5.25,1.97,-0.49,0,*68
1499288709.01,48225,17.44,74270.5,5.23,1.93,-0.85,0,*6B
1499288710.21,48226,17.44,74270.3,5.23,1.89,-1.25,0,*58
1499288711.43,48227,17.44,74266.8,5.21,1.89,-1.63,0,*59
1499288712.63,48228,17.44,74270.3,5.25,1.83,-1.95,0,*51
1499288713.82,48229,17.44,74270.5,5.23,1.79,-2.35,0,*5A
1499288715.05,48230,17.44,74270.8,5.23,1.59,-2.67,0,*57
1499288716.26,48231,17.44,74272.3,5.23,1.33,-3.15,0,*5E
1499288717.49,48232,17.44,74274.0,5.25,1.13,-3.47,0,*5E
1499288718.67,48233,17.44,74272.5,5.23,0.97,-3.91,0,*6F
1499288719.89,48234,17.44,74272.3,5.21,0.59,-4.33,0,*67
1499288721.11,48235,17.44,74272.0,5.23,0.33,-4.81,0,*61
1499288722.32,48236,17.44,74276.0,5.23,-0.11,-5.11,0,*47
1499288723.5,48237,17.44,74272.5,5.23,-0.49,-5.47,0,*48
1499288724.73,48238,17.44,74278.8,5.23,-0.89,-5.81,0,*41
1499288725.94,48239,17.44,74276.0,5.23,-1.35,-5.97,0,*71
1499288727.14,48240,17.44,74278.8,5.23,-1.79,-6.23,0,*7B
1499288728.32,48241,17.44,74278.0,5.23,-2.27,-6.39,0,*79
1499288729.54,48242,17.44,74280.0,5.23,-2.75,-6.51,0,*73
1499288730.73,48243,17.44,74278.8,5.23,-3.31,-6.51,0,*73
1499288731.92,48244,17.44,74278.8,5.23,-3.75,-6.59,0,*7C
1499288733.11,48245,17.44,74274.5,5.23,-4.17,-6.59,0,*7E
1499288734.3,48246,17.44,74276.0,5.25,-4.61,-6.47,0,*75
1499288735.5,48247,17.44,74272.3,5.23,-4.93,-6.39,0,*76
1499288736.73,48248,17.44,74274.0,5.21,-5.43,-6.27,0,*78
1499288737.96,48249,17.44,74272.8,5.21,-5.81,-6.13,0,*70
1499288739.2,48250,17.44,74270.5,5.21,-6.01,-5.89,0,*73
1499288740.44,48251,17.44,74272.3,5.21,-6.39,-5.81,0,*71
1499288741.69,48252,17.44,74268.0,5.21,-6.63,-5.69,0,*7B
1499288742.9,48253,17.44,74268.0,5.21,-6.77,-5.43,0,*77
1499288744.14,48254,17.44,74268.3,5.21,-6.89,-5.11,0,*76
1499288745.41,48255,17.44,74268.3,5.21,-6.93,-5.07,0,*7B
1499288746.67,48256,17.44,74268.0,5.21,-6.93,-4.81,0,*77
1499288747.93,48257,17.44,74270.5,5.21,-7.01,-4.69,0,*7A
1499288749.19,48258,17.44,74270.3,5.21,-7.01,-4.69,0,*75
1499288750.45,48259,17.44,74270.0,5.21,-7.05,-4.77,0,*7F
1499288751.67,48260,17.44,74274.3,5.19,-7.11,-4.85,0,*76
1499288752.89,48261,17.44,74272.0,5.19,-7.19,-4.93,0,*78
1499288754.12,48262,17.44,74272.3,5.19,-7.19,-5.03,0,*73
1499288755.34,48263,17.44,74272.5,5.19,-7.19,-5.03,0,*72
1499288756.56,48264,17.44,74274.3,5.19,-7.19,-5.15,0,*72
1499288757.75,48265,17.44,74272.3,5.19,-7.23,-5.35,0,*78
1499288758.96,48266,17.44,74270.0,5.19,-7.31,-5.47,0,*7D
1499288760.22,48267,17.44,74274.3,5.17,-7.31,-5.65,0,*72
1499288761.44,48268,17.44,74272.8,5.19,-7.23,-5.65,0,*70
1499288762.65,48269,17.44,74276.8,5.19,-7.23,-5.73,0,*76
1499288763.89,48270,17.44,74276.5,5.17,-7.23,-5.77,0,*74
1499288765.13,48271,17.44,74278.5,5.17,-7.19,-5.77,0,*7C
1499288766.38,48272,17.44,74276.3,5.17,-7.11,-5.85,0,*7A
1499288767.62,48273,17.44,74274.8,5.19,-7.05,-5.85,0,*70
1499288768.88,48274,17.44,74272.0,5.17,-7.05,-5.89,0,*75
1499288770.13,48275,17.44,74270.0,5.19,-6.93,-5.93,0,*7F
1499288771.31,48276,17.44,74268.3,5.19,-6.85,-6.05,0,*77
1499288772.53,48277,17.44,74270.3,5.17,-6.73,-6.31,0,*76
1499288773.74,48278,17.44,74264.8,5.17,-6.73,-6.43,0,*7C
1499288774.98,48279,17.44,74268.8,5.17,-6.73,-6.63,0,*7F
1499288776.19,48280,17.44,74266.8,5.17,-6.81,-6.73,0,*75
1499288777.43,48281,17.44,74270.0,5.17,-6.73,-6.93,0,*77
1499288778.67,48282,17.44,74266.0,5.17,-6.81,-6.97,0,*7D
1499288779.88,48283,17.44,74266.0,5.17,-6.85,-7.19,0,*7F
1499288781.1,48284,17.44,74262.3,5.15,-6.89,-7.39,0,*74
1499288782.31,48285,17.44,74264.8,5.15,-6.89,-7.65,0,*7C
1499288783.52,48286,17.44,74268.3,5.15,-6.85,-7.91,0,*78
1499288784.74,48287,17.44,74270.0,5.15,-6.69,-8.07,0,*7B
1499288785.92,48288,17.44,74268.5,5.15,-6.69,-8.33,0,*73
1499288787.13,48289,17.44,74268.3,5.17,-6.55,-8.37,0,*7B
1499288788.34,48290,17.44,74270.3,5.17,-6.51,-8.67,0,*72
1499288789.56,48291,17.44,74272.8,5.13,-6.43,-8.89,0,*74
1499288790.78,48292,17.44,74274.5,5.15,-6.35,-9.11,0,*70
1499288792.0,48293,17.44,74276.0,5.17,-6.27,-9.31,0,*72
1499288793.27,48294,17.44,74276.8,5.17,-6.27,-9.53,0,*71
1499288794.46,48295,17.44,74276.0,5.15,-6.35,-9.79,0,*79
1499288795.65,48296,17.44,74276.8,5.15,-6.35,-9.97,0,*7A
1499288796.87,48297,17.44,74282.0,5.13,-6.31,-10.09,0,*46
1499288798.08,48298,17.44,74274.5,5.15,-6.35,-10.27,0,*47
1499288799.3,48299,17.44,74278.3,5.13,-6.35,-10.35,0,*43
1499288800.52,48300,17.44,74278.5,5.13,-6.43,-10.49,0,*48
1499288801.76,48301,17.44,74278.0,5.13,-6.47,-10.75,0,*42
1499288802.95,48302,17.44,74276.0,5.11,-6.73,-10.85,0,*4B
1499288804.16,48303,17.44,74280.3,5.13,-6.69,-10.93,0,*44
1499288805.37,48304,17.44,74276.3,5.13,-6.85,-11.19,0,*42
1499288806.64,48305,17.44,74278.0,5.13,-6.97,-11.33,0,*48
1499288807.85,48306,17.44,74278.5,5.11,-7.15,-11.51,0,*46
1499288809.09,48307,17.44,74278.0,5.13,-7.23,-11.59,0,*48
1499288810.36,48308,17.44,74280.8,5.13,-7.35,-11.59,0,*40
1499288811.58,48309,17.44,74282.3,5.11,-7.53,-11.63,0,*4A
1499288812.85,48310,17.44,74284.5,5.13,-7.57,-11.59,0,*4D
1499288814.07,48311,17.44,74284.3,5.11,-7.83,-11.63,0,*4E
1499288815.33,48312,17.44,74284.0,5.13,-7.91,-11.59,0,*45
1499288816.6,48313,17.44,74284.0,5.13,-8.07,-11.59,0,*44
1499288817.84,48314,17.44,74280.5,5.13,-8.17,-11.51,0,*4A
1499288819.05,48315,17.44,74282.8,5.13,-8.33,-11.45,0,*48
1499288820.29,48316,17.44,74284.3,5.11,-8.51,-11.51,0,*48
1499288821.51,48317,17.44,74280.0,5.11,-8.75,-11.37,0,*4F
1499288822.71,48318,17.44,74282.5,5.11,-8.89,-11.15,0,*43
1499288823.91,48319,17.44,74284.0,5.11,-9.01,-10.97,0,*48
1499288825.16,48320,17.44,74278.5,5.11,-9.15,-10.79,0,*47
1499288826.41,48321,17.44,74276.3,5.09,-9.31,-10.63,0,*42
1499288827.61,48322,17.44,74280.8,5.11,-9.31,-10.31,0,*4F
1499288828.83,48323,17.44,74280.3,5.11,-9.37,-10.23,0,*4B
1499288830.04,48324,17.44,74278.3,5.11,-9.49,-9.97,0,*72
1499288831.25,48325,17.44,74278.3,5.11,-9.49,-9.89,0,*7C
1499288832.48,48326,17.44,74276.8,5.11,-9.61,-9.83,0,*7F
1499288833.69,48327,17.44,74272.8,5.11,-9.61,-9.75,0,*77
1499288834.9,48328,17.44,74276.0,5.09,-9.67,-9.75,0,*77
1499288836.12,48329,17.44,74274.0,5.09,-9.79,-9.75,0,*79
1499288837.33,48330,17.44,74278.3,5.09,-9.79,-9.67,0,*72
1499288838.54,48331,17.44,74276.3,5.09,-9.93,-9.75,0,*74
1499288839.73,48332,17.44,74274.3,5.07,-9.93,-9.79,0,*75
1499288840.94,48333,17.44,74276.0,5.09,-10.05,-9.79,0,*4D
1499288842.15,48334,17.44,74274.5,5.09,-10.05,-9.89,0,*45
1499288843.37,48335,17.44,74276.0,5.09,-10.15,-9.89,0,*45
1499288844.59,48336,17.44,74274.8,5.09,-10.27,-9.93,0,*4C
1499288845.79,48337,17.44,74276.0,5.07,-10.45,-10.01,0,*74
1499288847.02,48338,17.44,74274.5,5.09,-10.57,-10.15,0,*73
1499288848.25,48339,17.44,74270.3,5.09,-10.85,-10.19,0,*71
1499288849.49,48340,17.44,74270.8,5.09,-11.01,-10.27,0,*7F
1499288850.69,48341,17.44,74272.3,5.07,-11.19,-10.31,0,*7E
1499288851.92,48342,17.44,74272.5,5.07,-11.33,-10.27,0,*72
1499288853.15,48343,17.44,74274.5,5.09,-11.45,-10.31,0,*7B
1499288854.4,48344,17.44,74272.3,5.09,-11.73,-10.31,0,*79
1499288855.63,48345,17.44,74274.0,5.07,-11.85,-10.19,0,*75
1499288856.87,48346,17.44,74270.3,5.07,-11.85,-10.15,0,*7A
1499288858.07,48347,17.44,74270.3,5.07,-12.03,-10.15,0,*76
1499288859.29,48348,17.44,74274.3,5.11,-11.97,-9.97,0,*42
1499288860.51,48349,17.44,74270.0,5.07,-12.11,-9.93,0,*4D
1499288861.7,48350,17.44,74268.3,5.07,-12.03,-9.89,0,*4D
1499288862.92,48351,17.44,74270.5,5.07,-12.03,-9.61,0,*4A
1499288864.17,48352,17.44,74272.5,5.03,-12.07,-9.53,0,*48
1499288865.43,48353,17.44,74276.0,5.07,-11.93,-9.37,0,*41
1499288866.64,48354,17.44,74268.3,5.07,-11.85,-9.23,0,*44
1499288867.86,48355,17.44,74270.0,5.07,-11.73,-9.05,0,*48
1499288869.1,48356,17.44,74270.3,5.09,-11.67,-8.71,0,*42
1499288870.31,48357,17.44,74270.3,5.03,-11.51,-8.55,0,*4A
1499288871.5,48358,17.44,74264.0,5.07,-11.41,-8.25,0,*47
1499288872.75,48359,17.44,74264.3,5.07,-11.29,-7.99,0,*40
1499288873.98,48360,17.44,74264.5,5.07,-11.15,-7.61,0,*42
1499288875.22,48361,17.44,74266.5,5.07,-10.75,-7.31,0,*41
1499288876.41,48362,17.44,74270.0,5.07,-10.45,-6.85,0,*4F
1499288877.6,48363,17.44,74266.3,5.07,-10.01,-6.55,0,*43
1499288878.84,48364,17.44,74264.0,5.07,-9.53,-6.19,0,*73
1499288880.03,48365,17.44,74264.5,5.07,-8.97,-5.97,0,*7E
1499288881.25,48366,17.44,74260.0,5.07,-8.37,-5.65,0,*7A
1499288882.46,48367,17.44,74258.5,5.07,-7.91,-5.35,0,*7D
1499288883.7,48368,17.44,74256.0,5.07,-7.31,-5.23,0,*7F
1499288884.91,48369,17.44,74260.8,5.07,-6.63,-4.99,0,*78
1499288886.14,48370,17.44,74258.0,5.07,-6.27,-4.93,0,*7A
1499288887.41,48371,17.44,74260.0,5.09,-5.85,-4.93,0,*7E
1499288888.63,48372,17.44,74266.0,5.07,-5.47,-4.73,0,*73
1499288889.86,48373,17.44,74264.8,5.07,-5.11,-4.73,0,*71
1499288891.1,48374,17.44,74262.8,5.07,-4.81,-4.69,0,*75
1499288892.32,48375,17.44,74260.8,5.09,-4.57,-4.61,0,*79
1499288893.55,48376,17.44,74258.8,5.09,-4.45,-4.81,0,*77
1499288894.76,48377,17.44,74256.8,5.07,-4.33,-4.93,0,*7A
1499288895.99,48378,17.44,74266.0,5.07,-4.21,-5.11,0,*7D
1499288897.21,48379,17.44,74260.3,5.07,-4.05,-5.11,0,*7A
1499288898.43,48380,17.44,74260.8,5.07,-4.05,-5.15,0,*78
1499288899.67,48381,17.44,74258.0,5.09,-4.05,-5.27,0,*76
1499288900.86,48382,17.44,74260.3,5.07,-4.05,-5.47,0,*7D
1499288902.08,48383,17.44,74262.8,5.07,-4.05,-5.61,0,*78
1499288903.29,48384,17.44,74264.0,5.07,-4.17,-5.73,0,*7F
1499288904.53,48385,17.44,74266.0,5.09,-4.29,-5.89,0,*78
1499288905.74,48386,17.44,74268.0,5.09,-4.49,-6.05,0,*7A
1499288906.97,48387,17.44,74268.0,5.07,-4.81,-6.27,0,*71
1499288908.21,48388,17.44,74270.0,5.09,-5.11,-6.51,0,*79
1499288909.42,48389,17.44,74274.0,5.07,-5.47,-6.63,0,*74
1499288910.64,48390,17.44,74270.8,5.07,-5.85,-6.77,0,*77
1499288911.83,48391,17.44,74270.5,5.07,-6.13,-6.85,0,*77
1499288913.05,48392,17.44,74272.3,5.03,-6.55,-7.01,0,*7F
1499288914.24,48393,17.44,74274.0,5.07,-6.81,-7.11,0,*72